DW4691 Weather Reports


time (UTC)temp
C
wind
direction
speed
KPH
gust
KPH
rain 1hr
cm
rain 24hr
cm
rain mn
cm
humidity
%
barometer
mb
20260505093057 21 0 0.0 0.0 0.00 0.00 0.00 89 1008.5
20260505091549 21 0 0.0 0.0 0.00 0.00 0.00 89 1008.6
20260505090048 21 0 0.0 0.0 0.00 0.00 0.00 88 1008.6
20260505084553 21 0 0.0 0.0 0.00 0.00 0.00 88 1008.7
20260505083055 21 0 0.0 3.2 0.00 0.00 0.00 87 1008.7
20260505081556 21 0 0.0 1.6 0.00 0.00 0.00 87 1009.1
20260505080048 21 0 0.0 1.6 0.00 0.00 0.00 87 1009.1
20260505074549 21 0 0.0 0.0 0.00 0.00 0.00 87 1009.3
20260505073046 21 0 0.0 1.6 0.00 0.00 0.00 86 1009.3
20260505071547 21 0 0.0 4.8 0.00 0.00 0.00 86 1009.5
20260505070041 21 0 0.0 1.6 0.00 0.00 0.00 85 1009.7
20260505064546 21 0 0.0 1.6 0.00 0.00 0.00 85 1009.9
20260505063047 21 0 0.0 3.2 0.00 0.00 0.00 85 1009.8
20260505061552 21 0 0.0 4.8 0.00 0.00 0.00 84 1010.0
20260505060049 21 148 0.0 4.8 0.00 0.00 0.00 84 1010.2
20260505054555 21 0 0.0 8.0 0.00 0.00 0.00 84 1010.2
20260505053044 21 0 0.0 4.8 0.00 0.00 0.00 83 1010.4
20260505051541 21 0 0.0 1.6 0.00 0.00 0.00 83 1010.5
20260505041548 22 0 0.0 4.8 0.00 0.00 0.00 80 1010.6
20260505040044 22 0 0.0 14.5 0.00 0.00 0.00 79 1010.5
20260505034551 22 134 0.0 3.2 0.00 0.00 0.00 78 1010.7
20260505033046 22 0 0.0 6.4 0.00 0.00 0.00 78 1010.8
20260505031555 22 0 0.0 8.0 0.00 0.00 0.00 78 1011.0
20260505030100 23 0 0.0 8.0 0.00 0.00 0.00 77 1010.7
20260505024550 23 0 0.0 20.9 0.00 0.00 0.00 76 1010.6
20260505023047 23 0 0.0 8.0 0.00 0.00 0.00 75 1010.5
20260505021541 23 109 1.6 16.1 0.00 0.00 0.00 74 1010.4
20260505020050 23 0 0.0 6.4 0.00 0.00 0.00 75 1010.4
20260505014601 23 0 0.0 6.4 0.00 0.00 0.00 75 1010.2
20260505013044 23 0 0.0 6.4 0.00 0.00 0.00 75 1010.1
20260505011549 23 0 0.0 4.8 0.00 0.00 0.00 74 1009.7
20260505010041 24 0 0.0 6.4 0.00 0.00 0.00 73 1010.0
20260505004554 24 0 0.0 3.2 0.00 0.00 0.00 72 1009.9
20260505003044 25 0 0.0 6.4 0.00 0.00 0.00 70 1009.7
20260505001545 25 115 0.0 9.7 0.00 0.00 0.00 69 1009.8
20260505000047 25 0 0.0 3.2 0.00 0.00 0.00 68 1010.1
20260504234541 25 112 0.0 9.7 0.00 0.00 0.00 69 1010.0
20260504233046 26 0 0.0 11.3 0.00 0.00 0.00 67 1010.1
20260504231544 26 0 0.0 6.4 0.00 0.00 0.00 67 1010.2
20260504230053 26 0 0.0 6.4 0.00 0.00 0.00 64 1010.5
20260504224551 26 120 0.0 9.7 0.00 0.00 0.00 64 1010.5
20260504223047 26 0 0.0 6.4 0.00 0.00 0.00 64 1010.7
20260504221546 27 151 0.0 8.0 0.00 0.00 0.00 63 1010.9
20260504220052 27 0 0.0 6.4 0.00 0.00 0.00 63 1011.0
20260504214552 27 0 0.0 3.2 0.00 0.00 0.00 62 1011.0
20260504213058 27 0 0.0 3.2 0.00 0.00 0.00 62 1011.3
20260504211547 27 0 0.0 6.4 0.00 0.00 0.00 60 1011.5
20260504210057 28 0 0.0 6.4 0.00 0.00 0.00 57 1011.7
20260504204558 28 0 0.0 4.8 0.00 0.00 0.00 56 1011.9
20260504203049 28 82 0.0 3.2 0.00 0.00 0.00 56 1012.1
20260504201547 27 0 0.0 4.8 0.00 0.00 0.00 59 1012.5
20260504200047 27 0 0.0 9.7 0.00 0.00 0.00 59 1012.8
20260504194545 27 168 0.0 4.8 0.00 0.00 0.00 60 1013.1
20260504193044 27 134 0.0 6.4 0.00 0.00 0.00 58 1013.1
20260504191553 27 0 0.0 8.0 0.00 0.00 0.00 58 1013.2
20260504190052 27 0 0.0 3.2 0.00 0.00 0.00 58 1013.6
20260504184546 27 0 0.0 3.2 0.00 0.00 0.00 62 1013.7
20260504183045 27 121 0.0 8.0 0.00 0.00 0.00 56 1013.9
20260504181550 27 0 0.0 8.0 0.00 0.00 0.00 56 1013.9
20260504180106 26 140 1.6 6.4 0.00 0.00 0.00 59 1014.2
20260504174547 26 0 0.0 6.4 0.00 0.00 0.00 59 1014.3
20260504173058 26 0 0.0 6.4 0.00 0.00 0.00 61 1014.3
20260504171543 26 0 0.0 9.7 0.00 0.00 0.00 60 1014.5